Regional Weather Roundup
Issued by NWS

Home | Current Version | Previous Version | Text Only | Print | Product List | Glossary On
Versions: 1 2 3 4 5 6 7 8 9 10 11 12 13 14 15 16 17 18 19 20 21 22 23 24 25 26 27
000
ASUS44 KJAN 212310
RWRMS

MISSISSIPPI HOURLY WEATHER ROUNDUP
NATIONAL WEATHER SERVICE JACKSON MS
500 PM CST TUE FEB 21 2017

NOTE: "FAIR: INDICATES FEW OR NO CLOUDS BELOW 12,000 FEET WITH NO
SIGNIFICANT WEATHER AND/OR OBSTRUCTIONS TO VISIBILITY.

MSZ001>002-007>008-010>013-018>021-025>028-034>036-220000-
NORTHWEST MISSISSIPPI

CITY           SKY/WX    TMP DP  RH WIND       PRES   REMARKS
BATESVILLE     MOCLDY    65  60  84 E3        29.85S
CLEVELAND      FAIR      65  59  80 MISG      29.83F
GREENWOOD      CLEAR     66  54  65 CALM      29.83S
GREENVILLE     PTSUNNY   66  54  65 W5        29.83S
OLIVE BRANCH   CLOUDY   N/A N/A N/A SE3       29.85S
OXFORD         CLOUDY    59  57  94 SE3       29.88R
TUNICA         PTCLDY    64  55  72 CALM      29.85S
WINONA         CLOUDY    65  55  69 CALM      29.83F
$$

MSZ003>006-009-014>017-022>024-029>033-037>039-220000-
NORTHEAST MISSISSIPPI

CITY           SKY/WX    TMP DP  RH WIND       PRES   REMARKS
COLUMBUS AFB   CLOUDY    61  59  94 SE7       29.86F
CORINTH        CLOUDY    61  59  94 SE8       29.88S
GOLDN TRIANGLE CLOUDY    61  55  82 SE12      29.82F
TUPELO         LGT RAIN  60  58  92 E7        29.87S
$$

MSZ040-058-220000-
CENTRAL MISSISSIPPI

CITY           SKY/WX    TMP DP  RH WIND       PRES   REMARKS
JACKSON INTL   PTCLDY    69  53  56 NW3       29.83S
JACKSON HAWKNS CLEAR     67  53  61 CALM      29.84S
MADISON        MOCLDY   N/A N/A N/A NW3       29.84S
MERIDIAN KEY   PTCLDY    67  61  81 E3        29.84F
MERIDIAN NAS   LGT RAIN  64  58  80 S6        29.86S
VICKSBURG VKS  CLEAR     66  54  63 CALM      29.82S
$$

MSZ059>079-220000-
SOUTH MISSISSIPPI

CITY           SKY/WX    TMP DP  RH WIND       PRES   REMARKS
BROOKHAVEN     FAIR     N/A N/A N/A W5        29.85R
COLUMBIA       FAIR      64 N/A N/A CALM      29.86S
HATTIESBURG    PTCLDY    68  56  65 N3        29.85R
LAUREL         FAIR      67  56  69 CALM      29.85R
MCCOMB         SUNNY     69  47  45 NW5       29.83S
NATCHEZ        PTSUNNY   66  50  55 SW3       29.84S
PINE BELT      CLEAR     68  52  56 CALM      29.86S
$$

MSZ080>082-220000-
COASTAL MISSISSIPPI

CITY           SKY/WX    TMP DP  RH WIND       PRES   REMARKS
BAY ST LOUIS   PTCLDY    66  54  63 S6        29.84S
BILOXI         CLEAR     65  60  83 SW7       29.84R
PASCAGOULA     PTCLDY    67  57  70 CALM      29.85R
GULFPORT       PTCLDY    67  59  75 S5        29.84S
$$

LAZ007>009-015>016-023>026-220000-
NORTHEAST LOUISIANA

CITY           SKY/WX    TMP DP  RH WIND       PRES   REMARKS
BASTROP        FAIR      66  54  66 NW5       29.85R
TALLULAH/VBURG PTSUNNY   69  53  56 NE6       29.84S
VIDALIA        FAIR      69  54  58 E3        29.83S
$$




USA.gov is the U.S. government's official web portal to all federal, state and local government web resources and services.